Location: Eisingen in Unterfranken
(49.7591°N, 9.8347°E)
Time: 01:31:26
(UTC+01:00)

BlueWalker 3 - Pass Details

Date: 28 November 2022
Orbit: 499 x 517 km, 53.2° (Epoch: 26 January)

Event Time Altitude Azimuth Distance (km) Brightness Sun altitude
Rises 19:40:33 0° 278° (W) 2,627 6.7 -30.9°
Reaches altitude 10° 19:42:49 10° 284° (WNW) 1,737 5.5 -31.2°
Enters shadow 19:44:08 20° 291° (WNW) 1,247 4.5 -31.4°
